When you browse on this site, cookies collect data to enhance your experience and personalize the content and advertising you see.
Visit our Privacy Policy to learn more. By continuing to use the site, you agree to this use of cookies and data.
  • In Schweiz
  • Länderverzeichnis
  • Für 7 Tage
  • Wassertemperatur
  • Satellitenkarten
  • Wetterkarte
  • Widgets
  • user-avatar
    Anmelden

    Stündliche Wetter Serdytsya

    Heute, 21 Februar, Donnerstag

    Zeit Temperatur Niederschläge Wind Luftdruck Luftfeuchtigkeit
    00:00 +1°C° 0 mm 5 m/S 739 mmHg 78%
    01:00 +1°C° 0 mm 5 m/S 739 mmHg 81%
    02:00 +2°C° 0 mm 3 m/S 739 mmHg 86%
    03:00 +1°C° 0 mm 4 m/S 740 mmHg 86%
    04:00 +1°C° 0 mm 4 m/S 740 mmHg 86%
    05:00 +1°C° 0 mm 5 m/S 740 mmHg 86%
    06:00 +1°C° 0 mm 5 m/S 740 mmHg 87%
    07:00 +1°C° 0 mm 5 m/S 740 mmHg 87%
    08:00 0°C° 0 mm 5 m/S 740 mmHg 88%
    09:00 +1°C° 0.1 mm 5 m/S 740 mmHg 85%
    10:00 +2°C° 0.1 mm 5 m/S 740 mmHg 82%
    11:00 +2°C° 0.1 mm 6 m/S 740 mmHg 79%
    12:00 +3°C° 0.1 mm 6 m/S 740 mmHg 77%
    13:00 +3°C° 0.1 mm 6 m/S 740 mmHg 75%
    14:00 +4°C° 0.1 mm 6 m/S 740 mmHg 73%
    15:00 +4°C° 0 mm 6 m/S 740 mmHg 73%
    16:00 +5°C° 0 mm 5 m/S 739 mmHg 73%
    17:00 +5°C° 0 mm 4 m/S 739 mmHg 73%
    18:00 +5°C° 0.1 mm 4 m/S 739 mmHg 74%
    19:00 +4°C° 0.1 mm 4 m/S 739 mmHg 75%
    20:00 +3°C° 0.1 mm 5 m/S 738 mmHg 77%
    21:00 +3°C° 0.5 mm 5 m/S 738 mmHg 78%
    22:00 +3°C° 0.5 mm 5 m/S 738 mmHg 80%
    23:00 +2°C° 0.5 mm 5 m/S 738 mmHg 82%

    Morgen, 22 Februar, Freitag

    Zeit Temperatur Niederschläge Wind Luftdruck Luftfeuchtigkeit
    00:00 +2°C° 0.8 mm 5 m/S 737 mmHg 84%
    01:00 +2°C° 0.8 mm 5 m/S 737 mmHg 87%
    02:00 +2°C° 0.8 mm 5 m/S 737 mmHg 89%
    03:00 +3°C° 0.7 mm 4 m/S 737 mmHg 90%
    04:00 +3°C° 0.7 mm 4 m/S 737 mmHg 91%
    05:00 +1°C° 0.7 mm 4 m/S 736 mmHg 92%
    06:00 -1°C° 0.9 mm 5 m/S 737 mmHg 91%
    07:00 -4°C° 0.9 mm 7 m/S 737 mmHg 90%
    08:00 -7°C° 0.9 mm 8 m/S 738 mmHg 89%
    09:00 -7°C° 0.4 mm 8 m/S 739 mmHg 84%
    10:00 -7°C° 0.4 mm 7 m/S 741 mmHg 79%
    11:00 -7°C° 0.4 mm 7 m/S 742 mmHg 73%
    12:00 -6°C° 0 mm 6 m/S 743 mmHg 71%
    13:00 -6°C° 0 mm 6 m/S 744 mmHg 68%
    14:00 -6°C° 0 mm 6 m/S 745 mmHg 65%
    15:00 -8°C° 0 mm 6 m/S 745 mmHg 65%
    16:00 -8°C° 0 mm 6 m/S 746 mmHg 64%
    17:00 -8°C° 0 mm 6 m/S 746 mmHg 64%
    18:00 -9°C° 0 mm 6 m/S 747 mmHg 64%
    19:00 -8°C° 0 mm 5 m/S 747 mmHg 64%
    20:00 -8°C° 0 mm 5 m/S 748 mmHg 65%
    21:00 -8°C° 0 mm 5 m/S 749 mmHg 63%
    22:00 -10°C° 0 mm 5 m/S 749 mmHg 62%
    23:00 -10°C° 0 mm 5 m/S 750 mmHg 61%

    übermorgen, 23 Februar, Samstag

    Zeit Temperatur Niederschläge Wind Luftdruck Luftfeuchtigkeit
    00:00 -10°C° 0 mm 5 m/S 750 mmHg 62%
    01:00 -10°C° 0 mm 5 m/S 750 mmHg 62%
    02:00 -10°C° 0 mm 5 m/S 750 mmHg 63%
    03:00 -10°C° 0 mm 5 m/S 750 mmHg 63%
    04:00 -10°C° 0 mm 5 m/S 751 mmHg 64%
    05:00 -10°C° 0 mm 5 m/S 751 mmHg 65%
    06:00 -9°C° 0 mm 4 m/S 751 mmHg 66%
    07:00 -10°C° 0 mm 4 m/S 751 mmHg 68%
    08:00 -10°C° 0 mm 4 m/S 752 mmHg 69%
    09:00 -9°C° 0 mm 4 m/S 752 mmHg 66%
    10:00 -9°C° 0 mm 4 m/S 752 mmHg 63%
    11:00 -8°C° 0 mm 4 m/S 752 mmHg 60%
    12:00 -8°C° 0 mm 4 m/S 752 mmHg 59%
    13:00 -7°C° 0 mm 4 m/S 752 mmHg 57%
    14:00 -7°C° 0 mm 5 m/S 752 mmHg 56%
    15:00 -7°C° 0 mm 4 m/S 752 mmHg 57%
    16:00 -7°C° 0 mm 4 m/S 752 mmHg 59%
    17:00 -7°C° 0 mm 4 m/S 751 mmHg 60%
    18:00 -7°C° 0 mm 3 m/S 752 mmHg 64%
    19:00 -7°C° 0 mm 3 m/S 752 mmHg 68%
    20:00 -6°C° 0 mm 2 m/S 752 mmHg 71%
    21:00 -6°C° 0 mm 2 m/S 752 mmHg 71%
    22:00 -6°C° 0 mm 2 m/S 752 mmHg 70%
    23:00 -4°C° 0 mm 1 m/S 752 mmHg 70%

    24 Februar, Sonntag

    Zeit Temperatur Niederschläge Wind Luftdruck Luftfeuchtigkeit
    00:00 -6°C° 0 mm 2 m/S 752 mmHg 69%
    01:00 -6°C° 0 mm 2 m/S 752 mmHg 68%
    02:00 -6°C° 0 mm 2 m/S 752 mmHg 68%
    03:00 -6°C° 0 mm 2 m/S 751 mmHg 67%
    04:00 -6°C° 0 mm 2 m/S 751 mmHg 66%
    05:00 -6°C° 0 mm 2 m/S 751 mmHg 66%
    06:00 -6°C° 0 mm 2 m/S 751 mmHg 65%
    07:00 -6°C° 0 mm 2 m/S 751 mmHg 64%
    08:00 -6°C° 0 mm 2 m/S 751 mmHg 62%
    09:00 -5°C° 0 mm 2 m/S 751 mmHg 56%
    10:00 -4°C° 0 mm 2 m/S 751 mmHg 49%
    11:00 -3°C° 0 mm 2 m/S 750 mmHg 43%
    12:00 -2°C° 0 mm 2 m/S 750 mmHg 42%
    13:00 -2°C° 0 mm 2 m/S 750 mmHg 41%
    14:00 -1°C° 0 mm 2 m/S 749 mmHg 40%
    15:00 -1°C° 0 mm 2 m/S 749 mmHg 46%
    16:00 -2°C° 0 mm 2 m/S 749 mmHg 51%
    17:00 -2°C° 0 mm 2 m/S 749 mmHg 57%
    18:00 0°C° 0 mm 1 m/S 749 mmHg 59%
    19:00 0°C° 0 mm 1 m/S 749 mmHg 62%
    20:00 -1°C° 0 mm 0 m/S 749 mmHg 64%
    21:00 -1°C° 0 mm 0 m/S 749 mmHg 64%
    22:00 -2°C° 0 mm 0 m/S 749 mmHg 64%
    23:00 -2°C° 0 mm 0 m/S 749 mmHg 64%

    25 Februar, Montag

    Zeit Temperatur Niederschläge Wind Luftdruck Luftfeuchtigkeit
    00:00 -2°C° 0 mm 0 m/S 749 mmHg 64%
    01:00 -2°C° 0 mm 0 m/S 749 mmHg 64%
    02:00 -2°C° 0 mm 0 m/S 749 mmHg 64%
    03:00 -1°C° 0 mm 1 m/S 749 mmHg 66%
    04:00 -1°C° 0 mm 1 m/S 749 mmHg 69%
    05:00 -2°C° 0 mm 1 m/S 749 mmHg 71%
    06:00 -2°C° 0 mm 1 m/S 749 mmHg 72%
    07:00 -2°C° 0 mm 1 m/S 749 mmHg 74%
    08:00 -4°C° 0 mm 2 m/S 749 mmHg 75%
    09:00 -3°C° 0 mm 2 m/S 749 mmHg 70%
    10:00 0°C° 0 mm 1 m/S 749 mmHg 65%
    11:00 +2°C° 0 mm 1 m/S 749 mmHg 60%
    12:00 +2°C° 0 mm 2 m/S 749 mmHg 58%
    13:00 +3°C° 0 mm 2 m/S 749 mmHg 56%
    14:00 +3°C° 0 mm 3 m/S 749 mmHg 54%
    15:00 +2°C° 0 mm 3 m/S 749 mmHg 59%
    16:00 +3°C° 0 mm 2 m/S 748 mmHg 64%
    17:00 +2°C° 0 mm 2 m/S 748 mmHg 69%
    18:00 +1°C° 0 mm 2 m/S 748 mmHg 75%
    19:00 0°C° 0 mm 3 m/S 748 mmHg 80%
    20:00 -1°C° 0 mm 3 m/S 749 mmHg 85%
    21:00 -1°C° 0 mm 3 m/S 749 mmHg 88%
    22:00 -1°C° 0 mm 2 m/S 749 mmHg 91%
    23:00 -1°C° 0 mm 2 m/S 749 mmHg 94%

    26 Februar, Dienstag

    Zeit Temperatur Niederschläge Wind Luftdruck Luftfeuchtigkeit
    00:00 -1°C° 0 mm 2 m/S 748 mmHg 95%
    01:00 -2°C° 0 mm 2 m/S 748 mmHg 95%
    02:00 -2°C° 0 mm 3 m/S 747 mmHg 96%
    03:00 -2°C° 0 mm 3 m/S 747 mmHg 96%
    04:00 -2°C° 0 mm 3 m/S 747 mmHg 96%
    05:00 -4°C° 0 mm 3 m/S 746 mmHg 95%
    06:00 -2°C° 0 mm 3 m/S 746 mmHg 94%
    07:00 -2°C° 0 mm 3 m/S 746 mmHg 94%
    08:00 -3°C° 0 mm 4 m/S 746 mmHg 93%
    09:00 -2°C° 0 mm 4 m/S 745 mmHg 88%
    10:00 -1°C° 0 mm 4 m/S 745 mmHg 83%
    11:00 0°C° 0 mm 4 m/S 745 mmHg 79%
    12:00 +1°C° 0 mm 5 m/S 744 mmHg 73%
    13:00 +2°C° 0 mm 5 m/S 743 mmHg 68%
    14:00 +3°C° 0 mm 6 m/S 742 mmHg 63%
    15:00 +3°C° 0 mm 6 m/S 741 mmHg 67%
    16:00 +3°C° 0 mm 6 m/S 741 mmHg 71%
    17:00 +3°C° 0 mm 6 m/S 740 mmHg 75%
    18:00 +2°C° 0 mm 6 m/S 740 mmHg 79%
    19:00 +2°C° 0 mm 6 m/S 740 mmHg 82%
    20:00 +1°C° 0 mm 6 m/S 740 mmHg 85%
    21:00 +1°C° 0 mm 6 m/S 739 mmHg 87%
    22:00 +1°C° 0 mm 6 m/S 739 mmHg 88%
    23:00 -1°C° 0 mm 6 m/S 739 mmHg 90%
    Mehr zeigen